Hourly Data Report for May 30, 2012

All times are specified in Local Standard Time (LST). Add 1 hour to adjust for Daylight Saving Time where and when it is observed.

OTTAWA INTL A
ONTARIO

45°19'00.000" N
75°40'00.000" W
114.90 m
6106001
71628
YOW

Download Data

Hourly Data (May 2012)
Hourly Data Report for May 30, 2012
Temp Definition
°C
Dew Point Temp Definition
°C
Rel Hum Definition
%
Wind Dir Definition
10's deg

Wind Spd Definition
km/h
Visibility Definition
km
Stn Press Definition
kPa
Hmdx Definition


Wind Chill Definition


Weather Definition


TIME
00:00 16.2 8.5 60 24 13 10.0 99.08     LegendNANA
01:00 15.5 9.5 67 23 12 10.0 99.08     Mostly Cloudy
02:00 13.9 9.2 73 25 11 10.0 99.10     LegendNANA
03:00 13.9 9.4 74 24 9 10.0 99.10     LegendNANA
04:00 12.9 9.6 80 22 8 10.0 99.13     Mainly Clear
05:00 14.0 10.5 79 23 12 10.0 99.17     LegendNANA
06:00 16.5 10.6 68 27 9 10.0 99.23     LegendNANA
07:00 18.1 9.0 55 29 21 10.0 99.23     Mainly Clear
08:00 19.1 8.8 51 29 23 10.0 99.25     LegendNANA
09:00 19.6 9.3 51 30 19 10.0 99.26     LegendNANA
10:00 20.3 8.8 47 26 19 10.0 99.26     Mainly Clear
11:00 21.2 8.6 44 27 21 10.0 99.27     LegendNANA
12:00 22.5 10.8 47 27 18 10.0 99.25     LegendNANA
13:00 22.2 9.2 43 32 23 10.0 99.22     Mainly Clear
14:00 23.4 9.6 41 30 27 10.0 99.21     LegendNANA
15:00 23.2 9.8 42 28 16 10.0 99.17     LegendNANA
16:00 22.0 9.0 43 31 18 10.0 99.18     Mainly Clear
17:00 20.8 8.9 46 31 24 10.0 99.24     LegendNANA
18:00 20.9 8.7 45 30 24 10.0 99.29     LegendNANA
19:00 19.4 8.2 48 31 26 10.0 99.32     Mostly Cloudy
20:00 18.0 8.1 52 31 12 10.0 99.33     LegendNANA
21:00 16.5 8.0 57 31 12 10.0 99.38     LegendNANA
22:00 17.1 8.9 58 29 9 10.0 99.40     Cloudy
23:00 16.8 8.6 58 32 10 10.0 99.41     LegendNANA

Notes on Data Quality.

Legend

  • E = Estimated
  • M = Missing
  • NA = Not Available
Date modified: